STARLINK-11255, 60730

Orbit data source: Space-Track

STARLINK-11255, 60730 is a payload satellite owned by SpaceX/Seattle (US) in LEO that was launched on Wed, 28 Aug 2024 UTC via an FALCON 9 launch vehicle from the Air Force Eastern Test Range (AFETR). Payload-class satellites include a variety of spacecraft equipped with specific instruments for various scientific and technological missions. These include communications satellites like Starlink; space stations such as the ISS; scientific satellites like the Hubble; Earth observation satellites from companies like Planet Labs, Umbra, and HawkEye 360; GPS; miniature CubeSats for education and research; and military/defense satellites.

Loading next visibility...
Identifier
60730, 2024-152L
Orbit
LEO
Country
Flag of USUS
Related business
Manufacturer
SpaceX/Seattle
Mission
Operational Commercial Communications
Bus & Motor
STARLINK V2MD, Unknown motor
Mass
960 kg wet, ~910 kg dry
Launch date (UTC)
2024-08-28 (1 year ago)
Launch vehicle
FALCON 9
Launch site
Air Force Eastern Test Range (AFETR)
Object type
Payload
Rocket body
Debris
Shape & HBR
Box + 2 Pan, 18.1 m
Radar Cross Section
36.964 m², Large (>1 m²)

Expand to show TLE details & history
Last TLE update: 11 hours ago

TLE from 11 hours ago
0 STARLINK-11255
1 60730U 24152L   25295.11451884  .00006024  00000-0  54535-4 0  9993
2 60730  53.1562  79.1337 0001016  82.4268 277.6865 15.69712321 67087
Epoch: 2025-10-22T02:44Z
TLE epoch observation values (Epoch: 2025-10-22T02:44:54.427Z)
Latitude
-0.00006°
Longitude
7.11411°
Altitude
360.543 km
Speed
7.694 km/s
True Right ascension
05h 16m 32s
True Declination
0° 00' 00"
Sunlit
Object was in full shadow at epoch
Visualization orbit readout
Latitude
Unknown
Longitude
Unknown
Altitude
Unknown
Speed
Unknown
Apparent Right ascension
Unknown
Apparent Declination
Unknown
Sunlit
N/A
Visualization observer readout
Local Sidereal Time
08:51:38
Azimuth
Unknown
Elevation
Unknown
Doppler factor
Unknown
Orbital elements
Apogee altitude
360.666 km
Perigee altitude
359.297 km
Semi-major axis
6,738.118 km
Eccentricity
0.0001
Inclination
53.1562°
RAAN
79.1337°
Arg. of periapsis
82.4268°
True anomaly
277.67496°
Mean anomaly
277.6865°
Eccentric anomaly
277.68073°
Mean motion
3.92406 °/min
Orbital period
91.74 mins
BSTAR
0.000054535
Loading maneuver chart data...
Computing Atmospheric mass density...
Loading historical data...
Loading historical data...
Loading historical data...
Loading historical data...
Loading historical data...
Loading historical data...
Loading historical data...

Documentation

Showing up to 5 results
|